AirNav   Everest Fuels
 
 952 users online  

42A Melbourne Municipal Airport - John E Miller Field
Melbourne, Arkansas, USA

GOING TO MELBOURNE?


FAA INFORMATION EFFECTIVE 15 JULY 2021

Location

FAA Identifier: 42A
Lat/Long: 36-04-15.5290N 091-49-48.4880W
36-04.258817N 091-49.808133W
36.0709803,-91.8301356
(estimated)
Elevation: 734.8 ft. / 224.0 m (surveyed)
Variation: 01E (2005)
From city: 3 miles E of MELBOURNE, AR
Time zone: UTC -5 (UTC -6 during Standard Time)
Zip code: 72556

Airport Operations

Airport use: Open to the public
Activation date: 01/1994
Control tower: no
ARTCC: MEMPHIS CENTER
FSS: JONESBORO FLIGHT SERVICE STATION
NOTAMs facility: JBR (NOTAM-D service available)
Attendance: MON-SAT DAYLIGHT HOURS
Wind indicator: lighted
Segmented circle: yes
Lights: ACTVT MIRL RWY 03/21 - CTAF.
Beacon: white-green (lighted land airport)
Operates sunset to sunrise.

Airport Communications

CTAF: 122.9
  • APCH/DEP SVC PRVDD BY MEMPHIS ARTCC ON FREQS 126.85/281.55 (HARRISON RCAG).

Airport Services

Fuel available: 100LL JET-A
100LL:SELF SERVE FUEL H24 WITH CREDIT CARD.
Parking: hangars and tiedowns
Airframe service: MAJOR
Powerplant service: MAJOR

Runway Information

Runway 3/21

Dimensions: 4003 x 75 ft. / 1220 x 23 m
150 FT PAVED STOPWAY EACH END - FULL STRENGTH.
Surface: asphalt, in good condition
Runway edge lights: medium intensity
RUNWAY 3  RUNWAY 21
Latitude: 36-03.978357N36-04.539282N
Longitude: 091-50.021917W091-49.594318W
Elevation: 734.8 ft.708.9 ft.
Traffic pattern: leftleft
Runway heading: 031 magnetic, 032 true211 magnetic, 212 true
Markings: nonprecision, in good conditionnonprecision, in good condition
Visual slope indicator: 2-light PAPI on left (3.00 degrees glide path)2-light PAPI on left (3.00 degrees glide path)
Runway end identifier lights: yesyes
Touchdown point: yes, no lightsyes, no lights
Obstructions: 42 ft. tree, 1800 ft. from runway, 465 ft. right of centerline, 38:1 slope to clear50 ft. tree, 1550 ft. from runway, 425 ft. left of centerline, 27:1 slope to clear

Airport Ownership and Management from official FAA records

Ownership: Publicly-owned
Owner: CITY OF MELBOURNE
PO BOX 800
MELBOURNE, AR 72556
Phone 870-368-4215
Manager: KEN CLARK
P.O. BOX 800
MELBOURNE, AR 72556
Phone (870) 291-1227

Airport Operational Statistics

Aircraft based on the field: 16
Single engine airplanes: 13
Multi engine airplanes: 3
    
Aircraft operations: avg 178/day *
92% local general aviation
8% transient general aviation
<1% military
* for 12-month period ending 31 December 2019

Additional Remarks

FOR CD CTC MEMPHIS ARTCC AT 901-368-8453/8449.

Instrument Procedures

NOTE: All procedures below are presented as PDF files. If you need a reader for these files, you should download the free Adobe Reader.

NOT FOR NAVIGATION. Please procure official charts for flight.
FAA instrument procedures published for use from 15 July 2021 at 0901Z to 12 August 2021 at 0900z.

 
IAPs - Instrument Approach Procedures
RNAV (GPS) RWY 03   download (198KB)
RNAV (GPS) RWY 21   download (187KB)
NOTE: Special Take-Off Minimums/Departure Procedures apply   download (249KB)

Other nearby airports with instrument procedures:

6M2 - Horseshoe Bend Airport (10 nm N)
KCVK - Sharp County Regional Airport (17 nm NE)
7M2 - Mountain View Airport-Wilcox Memorial Field (18 nm SW)
KBVX - Batesville Regional Airport (23 nm SE)
KHBZ - Heber Springs Municipal Airport (35 nm S)
 
Loc | Ops | Rwys | IFR | FBO | Links
Com | Nav | Svcs | Stats | Notes
Area around 42A (Melbourne Municipal Airport - John E Miller Field)
 
Road maps at: MapQuest Bing Google
 
Aerial photo
WARNING: Photo may not be current or correct
Aerial photo of 42A (Melbourne Municipal Airport - John E Miller Field)
Photo courtesy of the Arkansas Department of Aeronautics
Taken in the Spring of 2007

Do you have a better or more recent aerial photo of Melbourne Municipal Airport - John E Miller Field that you would like to share? If so, please send us your photo.

 
Sectional chart

 
Airport distance calculator
Flying to Melbourne Municipal Airport - John E Miller Field? Find the distance to fly.

From to 42A

Sunrise and sunset
Times for 01-Aug-2021
 Local
(UTC-5)
 Zulu
(UTC)
Morning civil twilight05:4710:47
Sunrise06:1511:15
Sunset20:1201:12
Evening civil twilight20:4001:40

Current date and time
Zulu (UTC)  01-Aug-2021 13:59:57
Local (UTC-5)  01-Aug-2021 08:59:57
 
METAR
KBVX 
23nm S 
011340Z AUTO 30003KT 9SM SCT008 BKN070 24/23 A3007 RMK AO2
KFLP 
33nm NW 
011347Z AUTO 00000KT 3/4SM -RA BR FEW050 OVC100 21/21 A3009 RMK AO2 LTG DSNT S TSE00B18E33 P0003
KBPK 
36nm NW 
011353Z AUTO 01003KT 10SM SCT004 BKN011 BKN110 22/21 A3009 RMK AO2 LTG DSNT S RAE52 SLP179 P0002 T02220211
KM19 
41nm SE 
011349Z AUTO 01006KT 10SM OVC010 25/22 A3005 RMK AO2
KCCA 
41nm SW 
010955Z AUTO VRB03KT 9SM BKN065 BKN080 24/22 A3002 RMK AO2 P0033
KARG 
44nm E 
011342Z AUTO 05004KT 7SM FEW007 SCT014 SCT028 23/23 A3004 RMK AO2 RAB21E38 P0000
TAF
KBPK 
36nm NW 
011139Z 0112/0212 36006KT P6SM -SHRA VCTS BKN035CB OVC100 TEMPO 0112/0115 VRB06KT 4SM -TSRA BR BKN006 BKN012 OVC025CB FM011500 05006KT P6SM VCSH BKN025 OVC050 FM011900 02006KT P6SM SCT040 OVC100 FM020000 VRB04KT P6SM FEW050 BKN100
NOTAMs
Click for the latest NOTAMs
NOTAMs are issued by the DoD/FAA and will open in a separate window not controlled by AirNav.

 

 
 

FBO, Fuel Providers, and Aircraft Ground Support

  
 Business Name 
 
 Contact 
 
 Services / Description 
 
Fuel Prices
 
Comments
  
Melbourne Municipal Airport 870-368-4215
no information available

If you are affiliated with Melbourne Municipal Airport and would like to show here your services, contact info, web link, logo, and more, click here
100LL Jet A
SS $4.38 $4.00 
 Updated 19-Jul-2021
 
   write
SS=Self service
Update Fuel Prices
 

Aviation Businesses, Services, and Facilities

  
 Business Name 
 
 Contact 
 
 Services / Description 
 
Distance
 
Comments
  
Emerson Air Service 870-368-4101
no information available

If you are affiliated with Emerson Air Service and would like to show here your services, contact info, web link, logo, and more, click here
on airport  
   write
 

Would you like to see your business listed on this page?

 If your business provides an interesting product or service to pilots, flight crews, aircraft, or users of the Melbourne Municipal Airport - John E Miller Field, you should consider listing it here.  To start the listing process, click on the button below
 
Add a business
 

Other Pages about Melbourne Municipal Airport - John E Miller Field

Update a link
 
Copyright © AirNav, LLC. All rights reserved. Privacy Policy  Contact